Location: Doschendorf
(50.0069°N, 11.0602°E)
Time: 09:52:14
(UTC+00:00)

Cosmos 1697 Rocket - Pass Details

Date: 17 November 2019
Orbit: 834 x 842 km, 71.0° (Epoch: 15 December)

Event Time Altitude Azimuth Distance (km) Brightness Sun altitude
Rises 18:43:56 0° 238° (WSW) 3,390 6.5 -31.0°
Reaches altitude 10° 18:46:36 10° 248° (WSW) 2,458 5.8 -31.4°
Maximum altitude 18:51:42 34° 312° (NW) 1,358 4.1 -32.2°
Enters shadow 18:53:24 28° 346° (NNW) 1,521 4.1 -32.5°
